Regional Weather Roundup
Issued by NWS Charleston, SC

Current Version | Previous Version | Graphics & Text | Print | Product List | Glossary On
Versions: 1 2 3 4 5 6 7 8 9 10 11 12 13 14 15 16 17 18 19 20 21 22 23 24 25 26 27 28 29 30 31 32 33 34 35 36 37 38 39 40 41 42 43 44 45 46 47 48 49 50
000 ASUS42 KCHS 170612 RWRCHS Regional Weather Roundup National Weather Service Charleston SC 100 AM EST SUN DEC 17 2017 NOTE: "fair" indicates few or no clouds below 12,000 feet with no significant weather and/or obstructions to visibility. Not all stations are quality controlled. Use data with caution, especially dewpoint observations. SCZ027-030-031-034>040-042>050-170700- ...Southeast South Carolina... CITY SKY/WX TMP DP RH WIND PRES REMARKS N Charleston CLEAR 35 35 100 CALM 30.31F 6HR MIN TEMP: 33; 6HR MAX TEMP: 44; Waterfront Prk N/A 44 41 89 CALM 30.15F Mount Pleasant FAIR 34 34 100 CALM 30.30F FOG Johns Island FAIR 36 34 93 CALM 30.31S Pinopolis N/A 43 39 87 SW5 30.24F Moncks Corner FAIR 32 30 93 CALM 30.31S FOG Summerville FAIR 32 32 100 CALM 30.31F Beaufort MCAS CLOUDY 36 35 96 CALM 30.31S 6HR MIN TEMP: 35; 6HR MAX TEMP: 42; Beaufort Arpt FAIR 37 37 100 CALM 30.30S FOG Hilton Head Is CLEAR 37 36 93 CALM 30.31S Walterboro PTCLDY 30 28 93 CALM 30.32S Allendale FAIR 32 30 93 CALM 30.30S ...Southern Midlands and Pee Dee... CITY SKY/WX TMP DP RH WIND PRES REMARKS Georgetown FAIR 30 30 100 CALM 30.32S Kingstree FAIR 30 30 100 CALM 30.32R Orangeburg CLOUDY 31 30 96 CALM 30.29F 6HR MIN TEMP: 31; 6HR MAX TEMP: 40; Barnwell N/A 30 28 93 CALM 30.30S Aiken FAIR 30 27 86 CALM 30.31F Manning FAIR 30 30 100 MISG 30.31S Columbia CLOUDY 33 30 88 CALM 30.29S 6HR MIN TEMP: 30; 6HR MAX TEMP: 43; Sumter CLOUDY 32 27 81 CALM 30.28S 6HR MIN TEMP: 31; 6HR MAX TEMP: 42; Florence CLOUDY 33 29 85 CALM 30.30F 6HR MIN TEMP: 31; 6HR MAX TEMP: 40; Myrtle Beach PTCLDY 35 32 88 CALM 30.32F N Myrtle Beach CLOUDY 33 32 96 CALM 30.30F FOG 6HR MIN TEMP: 33; 6HR MAX TEMP: 40; $$ GAZ063-065-086>088-099>101-113>116-118-119-134>141-150-170700- ...Southeast Georgia... CITY SKY/WX TMP DP RH WIND PRES REMARKS Savannah Arpt CLOUDY 35 33 92 CALM 30.32R 6HR MIN TEMP: 34; 6HR MAX TEMP: 46; Hunter AAF CLEAR 36 32 87 CALM N/A 6HR MIN TEMP: 35; 6HR MAX TEMP: 43; Fort Stewart CLOUDY 35 33 92 CALM N/A 6HR MIN TEMP: 35; 6HR MAX TEMP: 42; Statesboro CLOUDY 32 32 100 CALM 30.31S Sylvania CLOUDY 33 32 98 CALM 30.31S Claxton FAIR 32 32 99 CALM 30.32R ...CSRA, Central and far Southeast Georgia... CITY SKY/WX TMP DP RH WIND PRES REMARKS Thomson CLOUDY 28 26 94 CALM 30.34S FOG Augusta-Bush CLOUDY 27 26 96 CALM 30.30F 6HR MIN TEMP: 27; 6HR MAX TEMP: 37; Augusta-Daniel CLOUDY 38 29 70 CALM 30.29F Swainsboro FAIR 34 34 100 CALM 30.31S Vidalia CLOUDY 36 36 100 CALM 30.31S Eastman FAIR 34 29 82 CALM 30.32F HAZE Hazlehurst FAIR 39 32 75 CALM 30.29F Alma CLOUDY 37 35 92 CALM 30.30F FOG 6HR MIN TEMP: 36; 6HR MAX TEMP: 43; Waycross CLOUDY 39 36 91 CALM 30.31R Jesup NOT AVBL Baxley FAIR 34 34 100 CALM 30.30F Brunswick FOG 37 36 93 CALM 30.32S VSB 3/4 Saint Simons CLEAR 43 41 93 CALM 30.30F 6HR MIN TEMP: 42; 6HR MAX TEMP: 47; $$ SCZ027-028-034-036>038-045-046-048>050-GAZ119-141-170700- ...Lake and Supplemental Coastal Observations... STATION/POSITION TIME TEMP WIND PRES WAVE SWELL AIR SEA DIR/SP/G HT/PER HT/PER/DIR (UTC) (F) (DEG/KT/KT) (MB) (FT/S) (FT/S/D) Winyah Bay 0445 36 CALM 1027.0 Lake Murray 0520 42 280/ 1/ 2 1025.1 ACE Basin NERRS 0445 37 CALM 1026.0 Fort Pulaski 0548 53 290/ 1/ 2 1026.7R Sapelo Island 0500 41 40/ 3 1026.0 $$ ANZ835-935-AMZ111-154-330-350-352-354-370-450-454-472-170700- ...C-MAN and Buoy Observations... STATION/POSITION TIME TEMP WIND PRES WAVE SWELL AIR SEA DIR/SP/G HT/PER HT/PER/DIR (UTC) (F) (DEG/KT/KT) (MB) (FT/S) (FT/S/D) Buoy 41004 0550 59 72 CALM / 2 1025.3F 2/ 8 2/ 80/ 8 Buoy 41008 0450 54 58 20/ 4/ 6 1026.2 1/11 2/110/11 Folly Beach CMAN 0500 45 310/ 3/ 3 1026.6F Capers Nearshore 0508 47 55 310/ 6/ 8 1026.1F STATION/POSITION TIME TEMP WIND PRES WAVE SWELL AIR SEA DIR/SP/G HT/PER HT/PER/DIR (UTC) (F) (DEG/KT/KT) (MB) (FT/S) (FT/S/D) 5E St. Marys GA 0530 62 N/A 1/10 Frying Pan Buoy 0550 56 68 290/ 10/ 16 1026.0R 2/10 2/110/10 Buoy 41025 0550 53 72 290/ 14/ 17 1025.6F 3/ 6 2/ 50/ 6 Cape Lookout NC 0500 260/ 7/ 9 1026.2R Buoy 41002 0550 62 74 320/ 4/ 8 1025.2F 4/ 6 3/340/ 6 Buoy 41010 NOT AVBL St Augustine FL 0600 59 63 340/ 5/ 6 1025.7R $$

USA.gov is the U.S. government's official web portal to all federal, state and local government web resources and services.